This is the latest recevied weather packets stored in our database for station/object AJ5AG. If no packets are shown the sender has not sent any weather packets the latest 10 day(s).
| Time | Temp. | Humidity | Pressure | Rain* | Wind** | Luminosity | Snow |
|---|---|---|---|---|---|---|---|
| 1778070341 | 23.89° C | 92% | 1012.8 hPa | 0 mm | - | 20 W/m² | - |
| 1778070040 | 23.89° C | 92% | 1012.6 hPa | 0 mm | - | 23 W/m² | - |
| 1778069737 | 23.89° C | 92% | 1012.7 hPa | 0 mm | - | 10 W/m² | - |
| 1778069433 | 23.89° C | 92% | 1012.4 hPa | 0 mm | - | 9 W/m² | - |
| 1778069131 | 23.89° C | 92% | 1012.5 hPa | 0 mm | - | 11 W/m² | - |
| 1778068828 | 23.89° C | 92% | 1012.4 hPa | 0 mm | - | 5 W/m² | - |
| 1778068526 | 23.89° C | 91% | 1012.4 hPa | 0 mm | - | 2 W/m² | - |
| 1778068225 | 23.89° C | 91% | 1012.4 hPa | 0 mm | - | 2 W/m² | - |
| 1778067921 | 23.89° C | 91% | 1012.4 hPa | 0 mm | - | 1 W/m² | - |
| 1778067620 | 23.89° C | 92% | 1012.1 hPa | 0 mm | - | 1 W/m² | - |
| 1778067317 | 23.89° C | 92% | 1012.1 hPa | 0 mm | - | 1 W/m² | - |
| 1778067014 | 23.89° C | 92% | 1012 hPa | 0 mm | - | 0 W/m² | - |
| 1778066711 | 23.89° C | 91% | 1012.1 hPa | 0 mm | - | 0 W/m² | - |
| 1778066408 | 23.89° C | 91% | 1011.9 hPa | 0 mm | - | 0 W/m² | - |
| 1778066106 | 23.89° C | 91% | 1012.1 hPa | 0 mm | - | 0 W/m² | - |
| 1778065803 | 23.89° C | 91% | 1011.9 hPa | 0 mm | - | 0 W/m² | - |
| 1778065501 | 23.89° C | 91% | 1011.9 hPa | 0 mm | - | 0 W/m² | - |
| 1778065197 | 23.89° C | 91% | 1011.8 hPa | 0 mm | - | 0 W/m² | - |
| 1778064893 | 23.89° C | 91% | 1011.9 hPa | 0 mm | - | 0 W/m² | - |
| 1778064591 | 23.89° C | 91% | 1011.8 hPa | 0 mm | - | 0 W/m² | - |
| 1778064289 | 24.44° C | 90% | 1011.7 hPa | 0 mm | - | 0 W/m² | - |
| 1778063987 | 24.44° C | 90% | 1011.4 hPa | 0 mm | - | 0 W/m² | - |
| 1778063684 | 24.44° C | 90% | 1011.4 hPa | 0 mm | - | 0 W/m² | - |
| 1778063380 | 24.44° C | 90% | 1011.4 hPa | 0 mm | - | 0 W/m² | - |
| 1778063079 | 24.44° C | 90% | 1011.5 hPa | 0 mm | - | 0 W/m² | - |
* Rain latest hour (hover to see other rain measurements)
** Current wind speed in m/s (hover to see current wind gust speed)